GRBBETA

Last updated on Mon Sep 21 2026 00:03:14 GMT+0000 (Coordinated Universal Time)

1 60237U 24128C 26263.37380526 .00002088 00000+0 15133-3 0 9991 2 60237 61.9884 242.1526 0026667 155.5743 204.6621 15.07199001120619
UTC large
Height (km)
Speed (km/s)
/
Latitude / Longitude
Inclination (degrees)
Orbital Period (minutes)
Azimuth
Elevation
Range (km)
Doppler Factor

Next 0 passes for location: London (51.5072 / 0.1276)

No passes found over London.
GRBBETA